Location: Nashville
(36.1660°N, 86.7840°W)
Time: 17:31:28
(UTC-06:00)

Tiangong - Pass Details

Date: 02 December 2022
Orbit: 383 x 386 km, 41.5° (Epoch: 28 January)

Event Time Altitude Azimuth Distance (km) Brightness Sun altitude
Rises 18:22:33 0° 277° (W) 2,259 3.0 -21.7°
Reaches altitude 10° 18:24:46 10° 288° (WNW) 1,408 1.5 -22.2°
Enters shadow 18:26:42 26° 319° (NW) 809 -0.3 -22.5°
